Time,TemperatureF,DewpointF,PressureIn,WindDirection,WindDirectionDegrees,WindSpeedMPH,WindSpeedGustMPH,Humidity,HourlyPrecipIn,Conditions,Clouds,dailyrainin,SolarRadiationWatts/m^2,SoftwareType,DateUTC
2013-09-13 00:03:00,69.1,68.0,29.79,SW,218,0.0,1.0,96,0.00,,,0.00,0,weatherlink.com 1.10,2013-09-13 04:03:00,
2013-09-13 00:04:00,69.1,67.9,29.79,SW,218,0.0,0.0,96,0.00,,,0.00,0,Wunderground v.1.15,2013-09-13 04:04:00,
2013-09-13 00:09:00,69.0,67.8,29.79,SW,218,0.0,0.0,96,0.00,,,0.00,0,Wunderground v.1.15,2013-09-13 04:09:00,
2013-09-13 00:15:00,69.0,67.8,29.79,SW,218,0.0,0.0,96,0.00,,,0.00,0,Wunderground v.1.15,2013-09-13 04:15:00,
2013-09-13 00:20:00,69.0,67.8,29.79,SW,218,0.0,0.0,96,0.00,,,0.00,0,Wunderground v.1.15,2013-09-13 04:20:00,
2013-09-13 00:26:00,69.0,68.1,29.79,SW,218,0.0,0.0,97,0.00,,,0.00,0,Wunderground v.1.15,2013-09-13 04:26:00,
2013-09-13 00:31:00,69.0,67.8,29.79,SW,218,0.0,0.0,96,0.00,,,0.00,0,Wunderground v.1.15,2013-09-13 04:31:00,
2013-09-13 00:37:00,68.9,67.7,29.79,SW,218,0.0,0.0,96,0.00,,,0.00,0,Wunderground v.1.15,2013-09-13 04:37:00,
2013-09-13 00:42:00,68.9,67.7,29.78,SW,218,0.0,0.0,96,0.00,,,0.00,0,Wunderground v.1.15,2013-09-13 04:42:00,
2013-09-13 00:48:00,68.9,67.7,29.78,SW,218,0.0,0.0,96,0.00,,,0.00,0,Wunderground v.1.15,2013-09-13 04:48:00,
2013-09-13 00:53:00,69.0,67.8,29.78,SW,218,0.0,0.0,96,0.00,,,0.00,0,Wunderground v.1.15,2013-09-13 04:53:00,
2013-09-13 00:59:00,69.0,68.1,29.77,SW,218,0.0,0.0,97,0.00,,,0.00,0,Wunderground v.1.15,2013-09-13 04:59:00,
2013-09-13 01:05:00,69.0,67.8,29.77,SW,218,0.0,0.0,96,0.00,,,0.00,0,Wunderground v.1.15,2013-09-13 05:05:00,
2013-09-13 01:10:00,68.9,67.7,29.77,SW,218,0.0,0.0,96,0.00,,,0.00,0,Wunderground v.1.15,2013-09-13 05:10:00,
2013-09-13 01:15:00,68.9,67.7,29.76,SW,218,0.0,1.0,96,0.00,,,0.00,0,Wunderground v.1.15,2013-09-13 05:15:00,
2013-09-13 01:21:00,68.9,68.0,29.76,SW,218,0.0,1.0,97,0.00,,,0.00,0,weatherlink.com 1.10,2013-09-13 05:21:00,
2013-09-13 01:27:00,68.9,68.0,29.76,SW,218,0.0,0.0,97,0.00,,,0.00,0,Wunderground v.1.15,2013-09-13 05:27:00,
2013-09-13 01:33:00,68.8,67.9,29.75,SW,218,0.0,0.0,97,0.00,,,0.00,0,Wunderground v.1.15,2013-09-13 05:33:00,
2013-09-13 01:39:00,68.8,67.9,29.75,SW,218,0.0,1.0,97,0.00,,,0.00,0,Wunderground v.1.15,2013-09-13 05:39:00,
2013-09-13 01:45:00,68.7,67.8,29.75,SW,218,1.0,1.0,97,0.00,,,0.00,0,Wunderground v.1.15,2013-09-13 05:45:00,
2013-09-13 01:50:00,68.6,67.7,29.75,SW,218,0.0,1.0,97,0.00,,,0.00,0,Wunderground v.1.15,2013-09-13 05:50:00,
2013-09-13 01:55:00,68.5,67.6,29.74,SW,218,0.0,1.0,97,0.00,,,0.00,0,Wunderground v.1.15,2013-09-13 05:55:00,
2013-09-13 02:01:00,68.4,67.5,29.74,SW,226,0.0,0.0,97,0.00,,,0.00,0,Wunderground v.1.15,2013-09-13 06:01:00,
2013-09-13 02:06:00,68.4,67.5,29.74,SW,226,0.0,1.0,97,0.00,,,0.00,0,Wunderground v.1.15,2013-09-13 06:06:00,
2013-09-13 02:11:00,68.3,67.4,29.74,SW,226,0.0,0.0,97,0.00,,,0.00,0,Wunderground v.1.15,2013-09-13 06:11:00,
2013-09-13 02:16:00,68.3,67.4,29.74,SW,226,0.0,0.0,97,0.00,,,0.00,0,Wunderground v.1.15,2013-09-13 06:16:00,
2013-09-13 02:21:00,68.3,67.4,29.74,WSW,239,0.0,1.0,97,0.00,,,0.00,0,Wunderground v.1.15,2013-09-13 06:21:00,
2013-09-13 02:26:00,68.2,67.3,29.74,WSW,239,0.0,1.0,97,0.00,,,0.00,0,Wunderground v.1.15,2013-09-13 06:26:00,
2013-09-13 02:31:00,68.2,67.3,29.73,WSW,239,0.0,0.0,97,0.00,,,0.00,0,Wunderground v.1.15,2013-09-13 06:31:00,
2013-09-13 02:36:00,68.1,67.2,29.73,WSW,241,2.0,2.0,97,0.00,,,0.00,0,Wunderground v.1.15,2013-09-13 06:36:00,
2013-09-13 02:41:00,68.1,67.2,29.74,WSW,241,0.0,0.0,97,0.00,,,0.00,0,Wunderground v.1.15,2013-09-13 06:41:00,
2013-09-13 02:46:00,68.1,67.2,29.73,WSW,241,0.0,2.0,97,0.00,,,0.00,0,Wunderground v.1.15,2013-09-13 06:46:00,
2013-09-13 02:51:00,68.1,67.2,29.73,WSW,241,0.0,0.0,97,0.00,,,0.00,0,Wunderground v.1.15,2013-09-13 06:51:00,
2013-09-13 02:56:00,68.1,67.2,29.73,WSW,241,0.0,2.0,97,0.00,,,0.00,0,Wunderground v.1.15,2013-09-13 06:56:00,
2013-09-13 03:01:00,68.1,67.2,29.73,WSW,241,1.0,1.0,97,0.00,,,0.00,0,Wunderground v.1.15,2013-09-13 07:01:00,
2013-09-13 03:06:00,68.1,67.2,29.73,WSW,241,0.0,2.0,97,0.00,,,0.00,0,Wunderground v.1.15,2013-09-13 07:06:00,
2013-09-13 03:11:00,68.0,67.1,29.73,WSW,241,0.0,0.0,97,0.00,,,0.01,0,Wunderground v.1.15,2013-09-13 07:11:00,
2013-09-13 03:16:00,68.0,67.1,29.73,WSW,241,0.0,1.0,97,0.00,,,0.01,0,Wunderground v.1.15,2013-09-13 07:16:00,
2013-09-13 03:21:00,67.9,67.0,29.73,WNW,296,1.0,1.0,97,0.00,,,0.01,0,Wunderground v.1.15,2013-09-13 07:21:00,
2013-09-13 03:26:00,67.9,67.0,29.73,WNW,296,0.0,1.0,97,0.00,,,0.01,0,Wunderground v.1.15,2013-09-13 07:26:00,
2013-09-13 03:31:00,67.8,66.9,29.73,WNW,296,2.0,2.0,97,0.00,,,0.01,0,Wunderground v.1.15,2013-09-13 07:31:00,
2013-09-13 03:36:00,67.8,66.9,29.73,WNW,296,0.0,2.0,97,0.00,,,0.01,0,Wunderground v.1.15,2013-09-13 07:36:00,
2013-09-13 03:41:00,67.7,66.8,29.72,WNW,296,0.0,0.0,97,0.00,,,0.01,0,Wunderground v.1.15,2013-09-13 07:41:00,
2013-09-13 03:46:00,67.7,66.8,29.73,WNW,296,0.0,1.0,97,0.00,,,0.01,0,Wunderground v.1.15,2013-09-13 07:46:00,
2013-09-13 03:51:00,67.7,66.8,29.73,WNW,296,0.0,0.0,97,0.00,,,0.01,0,Wunderground v.1.15,2013-09-13 07:51:00,
2013-09-13 03:56:00,67.6,66.7,29.73,WNW,296,0.0,0.0,97,0.00,,,0.01,0,Wunderground v.1.15,2013-09-13 07:56:00,
2013-09-13 04:01:00,67.6,66.7,29.73,WNW,296,1.0,2.0,97,0.00,,,0.01,0,Wunderground v.1.15,2013-09-13 08:01:00,
2013-09-13 04:06:00,67.6,66.7,29.74,WNW,296,0.0,2.0,97,0.00,,,0.01,0,Wunderground v.1.15,2013-09-13 08:06:00,
2013-09-13 04:11:00,67.6,66.7,29.74,WNW,296,0.0,0.0,97,0.00,,,0.01,0,Wunderground v.1.15,2013-09-13 08:11:00,
2013-09-13 04:16:00,67.5,66.6,29.74,WNW,296,0.0,0.0,97,0.00,,,0.01,0,Wunderground v.1.15,2013-09-13 08:16:00,
2013-09-13 04:21:00,67.5,66.6,29.74,WNW,296,0.0,0.0,97,0.00,,,0.01,0,Wunderground v.1.15,2013-09-13 08:21:00,
2013-09-13 04:26:00,67.5,66.6,29.74,WNW,296,0.0,2.0,97,0.00,,,0.01,0,Wunderground v.1.15,2013-09-13 08:26:00,
2013-09-13 04:31:00,67.5,66.6,29.74,WNW,296,1.0,1.0,97,0.00,,,0.01,0,Wunderground v.1.15,2013-09-13 08:31:00,
2013-09-13 04:36:00,67.4,66.5,29.74,WNW,296,1.0,2.0,97,0.00,,,0.02,0,Wunderground v.1.15,2013-09-13 08:36:00,
2013-09-13 04:41:00,67.4,66.5,29.74,WNW,296,0.0,0.0,97,0.00,,,0.02,0,Wunderground v.1.15,2013-09-13 08:41:00,
2013-09-13 04:46:00,67.4,66.5,29.74,WNW,296,0.0,1.0,97,0.00,,,0.02,0,Wunderground v.1.15,2013-09-13 08:46:00,
2013-09-13 04:52:00,67.4,66.5,29.74,WNW,296,0.0,1.0,97,0.04,,,0.03,0,Wunderground v.1.15,2013-09-13 08:52:00,
2013-09-13 04:57:00,67.2,66.3,29.75,NW,321,3.0,3.0,97,0.07,,,0.04,0,Wunderground v.1.15,2013-09-13 08:57:00,
2013-09-13 05:02:00,67.0,66.1,29.74,WNW,297,2.0,4.0,97,0.07,,,0.04,0,Wunderground v.1.15,2013-09-13 09:02:00,
2013-09-13 05:07:00,66.8,65.9,29.74,NW,307,0.0,4.0,97,0.05,,,0.04,0,Wunderground v.1.15,2013-09-13 09:07:00,
2013-09-13 05:12:00,66.7,65.8,29.74,NW,307,0.0,0.0,97,0.04,,,0.04,0,Wunderground v.1.15,2013-09-13 09:12:00,
2013-09-13 05:17:00,66.6,65.7,29.74,NW,307,0.0,0.0,97,0.00,,,0.04,0,Wunderground v.1.15,2013-09-13 09:17:00,
2013-09-13 05:22:00,66.6,65.7,29.73,NW,307,0.0,0.0,97,0.00,,,0.04,0,Wunderground v.1.15,2013-09-13 09:22:00,
2013-09-13 05:27:00,66.5,65.6,29.73,NW,307,0.0,0.0,97,0.00,,,0.04,0,Wunderground v.1.15,2013-09-13 09:27:00,
2013-09-13 05:32:00,66.4,65.5,29.73,NW,307,0.0,0.0,97,0.00,,,0.04,0,Wunderground v.1.15,2013-09-13 09:32:00,
2013-09-13 05:37:00,66.3,65.4,29.73,NW,307,0.0,0.0,97,0.00,,,0.04,0,Wunderground v.1.15,2013-09-13 09:37:00,
2013-09-13 05:42:00,66.2,65.3,29.74,NW,307,0.0,0.0,97,0.00,,,0.04,0,Wunderground v.1.15,2013-09-13 09:42:00,
2013-09-13 05:47:00,66.2,65.3,29.74,NW,307,0.0,0.0,97,0.00,,,0.04,0,Wunderground v.1.15,2013-09-13 09:47:00,
2013-09-13 05:52:00,66.1,65.2,29.74,NW,307,0.0,0.0,97,0.00,,,0.04,0,Wunderground v.1.15,2013-09-13 09:52:00,
2013-09-13 05:57:00,66.1,65.2,29.74,NW,307,0.0,0.0,97,0.00,,,0.04,0,Wunderground v.1.15,2013-09-13 09:57:00,
2013-09-13 06:02:00,66.1,65.2,29.74,NW,307,0.0,0.0,97,0.00,,,0.04,0,Wunderground v.1.15,2013-09-13 10:02:00,
2013-09-13 06:07:00,66.0,65.1,29.74,NW,307,0.0,0.0,97,0.00,,,0.04,0,Wunderground v.1.15,2013-09-13 10:07:00,
2013-09-13 06:12:00,66.0,65.1,29.74,NW,307,0.0,0.0,97,0.00,,,0.04,0,Wunderground v.1.15,2013-09-13 10:12:00,
2013-09-13 06:17:00,65.9,65.0,29.74,NW,307,0.0,0.0,97,0.00,,,0.04,0,Wunderground v.1.15,2013-09-13 10:17:00,
2013-09-13 06:22:00,65.9,65.0,29.74,NW,307,0.0,0.0,97,0.00,,,0.04,0,Wunderground v.1.15,2013-09-13 10:22:00,
2013-09-13 06:27:00,65.8,64.9,29.74,NW,307,0.0,0.0,97,0.00,,,0.04,0,Wunderground v.1.15,2013-09-13 10:27:00,
2013-09-13 06:32:00,65.8,64.9,29.74,NW,307,0.0,0.0,97,0.00,,,0.04,0,Wunderground v.1.15,2013-09-13 10:32:00,
2013-09-13 06:37:00,65.7,64.8,29.74,NW,307,0.0,0.0,97,0.00,,,0.04,0,Wunderground v.1.15,2013-09-13 10:37:00,
2013-09-13 06:42:00,65.7,64.8,29.74,NW,307,0.0,0.0,97,0.00,,,0.04,0,Wunderground v.1.15,2013-09-13 10:42:00,
2013-09-13 06:47:00,65.7,64.8,29.75,NW,307,0.0,0.0,97,0.00,,,0.04,7,Wunderground v.1.15,2013-09-13 10:47:00,
2013-09-13 06:52:00,65.8,64.9,29.75,NW,307,0.0,0.0,97,0.00,,,0.04,9,Wunderground v.1.15,2013-09-13 10:52:00,
2013-09-13 06:57:00,65.7,64.8,29.75,NW,307,0.0,0.0,97,0.00,,,0.04,14,Wunderground v.1.15,2013-09-13 10:57:00,
2013-09-13 07:02:00,65.7,64.8,29.75,NW,307,0.0,0.0,97,0.00,,,0.04,18,Wunderground v.1.15,2013-09-13 11:02:00,
2013-09-13 07:07:00,65.7,64.8,29.75,NW,307,0.0,0.0,97,0.00,,,0.04,18,Wunderground v.1.15,2013-09-13 11:07:00,
2013-09-13 07:12:00,65.7,64.8,29.75,NW,307,0.0,0.0,97,0.00,,,0.04,19,Wunderground v.1.15,2013-09-13 11:12:00,
2013-09-13 07:17:00,65.7,64.8,29.76,NW,307,0.0,1.0,97,0.00,,,0.04,18,Wunderground v.1.15,2013-09-13 11:17:00,
2013-09-13 07:22:00,65.8,64.9,29.76,NW,307,0.0,0.0,97,0.00,,,0.04,19,Wunderground v.1.15,2013-09-13 11:22:00,
2013-09-13 07:27:00,65.8,64.9,29.76,NW,307,0.0,0.0,97,0.00,,,0.04,23,Wunderground v.1.15,2013-09-13 11:27:00,
2013-09-13 07:32:00,65.8,64.9,29.76,NW,307,1.0,1.0,97,0.00,,,0.04,25,Wunderground v.1.15,2013-09-13 11:32:00,
2013-09-13 07:37:00,65.9,65.0,29.76,NW,307,0.0,1.0,97,0.00,,,0.04,32,Wunderground v.1.15,2013-09-13 11:37:00,
2013-09-13 07:42:00,65.9,65.0,29.76,NW,307,0.0,1.0,97,0.00,,,0.04,44,Wunderground v.1.15,2013-09-13 11:42:00,
2013-09-13 07:47:00,65.9,65.0,29.76,NW,307,0.0,2.0,97,0.00,,,0.04,58,Wunderground v.1.15,2013-09-13 11:47:00,
2013-09-13 07:52:00,66.0,65.1,29.76,NW,307,0.0,0.0,97,0.00,,,0.04,91,Wunderground v.1.15,2013-09-13 11:52:00,
2013-09-13 07:57:00,66.2,65.3,29.76,NW,307,0.0,0.0,97,0.00,,,0.04,58,Wunderground v.1.15,2013-09-13 11:57:00,
2013-09-13 08:02:00,66.2,65.3,29.76,NW,307,0.0,1.0,97,0.00,,,0.04,49,Wunderground v.1.15,2013-09-13 12:02:00,
2013-09-13 08:07:00,66.3,65.4,29.76,NW,307,0.0,1.0,97,0.00,,,0.04,125,Wunderground v.1.15,2013-09-13 12:07:00,
2013-09-13 08:12:00,66.4,65.5,29.75,NW,307,0.0,1.0,97,0.00,,,0.04,98,Wunderground v.1.15,2013-09-13 12:12:00,
2013-09-13 08:17:00,66.4,65.5,29.75,NW,307,0.0,1.0,97,0.00,,,0.04,162,Wunderground v.1.15,2013-09-13 12:17:00,
2013-09-13 08:22:00,66.5,65.9,29.75,North,10,0.0,3.0,98,0.00,,,0.04,130,Wunderground v.1.15,2013-09-13 12:22:00,
2013-09-13 08:27:00,66.7,66.1,29.75,WNW,302,1.0,3.0,98,0.00,,,0.04,97,Wunderground v.1.15,2013-09-13 12:27:00,
2013-09-13 08:32:00,66.8,65.9,29.76,West,269,1.0,3.0,97,0.00,,,0.04,148,Wunderground v.1.15,2013-09-13 12:32:00,
2013-09-13 08:37:00,66.9,66.0,29.76,West,269,0.0,3.0,97,0.00,,,0.04,109,Wunderground v.1.15,2013-09-13 12:37:00,
2013-09-13 08:42:00,67.0,66.1,29.76,NW,314,0.0,1.0,97,0.00,,,0.04,121,Wunderground v.1.15,2013-09-13 12:42:00,
2013-09-13 08:47:00,67.1,66.2,29.76,WSW,257,0.0,3.0,97,0.00,,,0.04,128,Wunderground v.1.15,2013-09-13 12:47:00,
2013-09-13 08:52:00,67.1,66.2,29.76,West,263,1.0,3.0,97,0.00,,,0.04,139,Wunderground v.1.15,2013-09-13 12:52:00,
2013-09-13 08:57:00,67.1,66.5,29.75,East,96,0.0,3.0,98,0.00,,,0.04,146,Wunderground v.1.15,2013-09-13 12:57:00,
2013-09-13 09:03:00,67.1,66.2,29.75,SSE,167,2.0,2.0,97,0.00,,,0.04,141,Wunderground v.1.15,2013-09-13 13:03:00,
2013-09-13 09:08:00,67.2,66.3,29.75,WNW,288,0.0,3.0,97,0.00,,,0.04,104,Wunderground v.1.15,2013-09-13 13:08:00,
2013-09-13 09:13:00,67.3,66.4,29.75,WNW,288,0.0,2.0,97,0.00,,,0.04,107,Wunderground v.1.15,2013-09-13 13:13:00,
2013-09-13 09:18:00,67.4,66.5,29.75,WSW,238,2.0,6.0,97,0.00,,,0.04,132,Wunderground v.1.15,2013-09-13 13:18:00,
2013-09-13 09:23:00,67.6,66.7,29.75,WSW,249,0.0,1.0,97,0.00,,,0.04,125,Wunderground v.1.15,2013-09-13 13:23:00,
2013-09-13 09:28:00,67.7,66.8,29.75,NNW,338,1.0,3.0,97,0.00,,,0.04,91,Wunderground v.1.15,2013-09-13 13:28:00,
2013-09-13 09:33:00,67.5,66.6,29.75,SW,232,2.0,5.0,97,0.00,,,0.04,127,Wunderground v.1.15,2013-09-13 13:33:00,
2013-09-13 09:38:00,67.5,66.6,29.75,NNW,343,0.0,5.0,97,0.00,,,0.04,111,Wunderground v.1.15,2013-09-13 13:38:00,
2013-09-13 09:43:00,67.6,66.7,29.75,NNW,343,0.0,3.0,97,0.00,,,0.04,148,Wunderground v.1.15,2013-09-13 13:43:00,
2013-09-13 09:48:00,67.7,66.8,29.75,West,275,2.0,3.0,97,0.00,,,0.04,111,Wunderground v.1.15,2013-09-13 13:48:00,
2013-09-13 09:53:00,67.9,66.7,29.75,NNW,328,3.0,4.0,96,0.00,,,0.04,130,Wunderground v.1.15,2013-09-13 13:53:00,
2013-09-13 09:58:00,68.0,66.8,29.75,NNW,327,2.0,5.0,96,0.00,,,0.04,179,Wunderground v.1.15,2013-09-13 13:58:00,
2013-09-13 10:03:00,68.0,66.5,29.75,North,355,4.0,5.0,95,0.00,,,0.04,162,Wunderground v.1.15,2013-09-13 14:03:00,
2013-09-13 10:08:00,68.1,66.6,29.75,North,9,0.0,5.0,95,0.00,,,0.04,329,Wunderground v.1.15,2013-09-13 14:08:00,
2013-09-13 10:13:00,68.4,66.9,29.75,NNE,14,0.0,2.0,95,0.00,,,0.04,584,Wunderground v.1.15,2013-09-13 14:13:00,
2013-09-13 10:18:00,68.6,66.8,29.75,West,278,2.0,7.0,94,0.00,,,0.04,592,Wunderground v.1.15,2013-09-13 14:18:00,
2013-09-13 10:23:00,68.9,66.8,29.75,North,360,2.0,5.0,93,0.00,,,0.04,629,Wunderground v.1.15,2013-09-13 14:23:00,
2013-09-13 10:28:00,69.4,67.0,29.74,WNW,286,0.0,5.0,92,0.00,,,0.04,705,Wunderground v.1.15,2013-09-13 14:28:00,
2013-09-13 10:33:00,70.2,67.1,29.74,NW,311,0.0,1.0,90,0.00,,,0.04,624,Wunderground v.1.15,2013-09-13 14:33:00,
2013-09-13 10:38:00,70.8,67.1,29.75,NNE,31,1.0,5.0,88,0.00,,,0.04,318,Wunderground v.1.15,2013-09-13 14:38:00,
2013-09-13 10:43:00,71.3,67.2,29.75,WNW,300,1.0,3.0,87,0.00,,,0.04,343,Wunderground v.1.15,2013-09-13 14:43:00,
2013-09-13 10:48:00,71.4,66.3,29.76,North,351,3.0,5.0,84,0.00,,,0.05,237,Wunderground v.1.15,2013-09-13 14:48:00,
2013-09-13 10:53:00,71.3,65.9,29.76,NNE,18,0.0,6.0,83,0.00,,,0.05,292,Wunderground v.1.15,2013-09-13 14:53:00,
2013-09-13 10:58:00,71.3,65.9,29.76,NE,36,2.0,6.0,83,0.00,,,0.05,352,Wunderground v.1.15,2013-09-13 14:58:00,
2013-09-13 11:03:00,71.6,66.2,29.76,North,355,0.0,5.0,83,0.00,,,0.05,629,Wunderground v.1.15,2013-09-13 15:03:00,
2013-09-13 11:08:00,71.9,65.8,29.76,NW,309,3.0,5.0,81,0.00,,,0.05,510,Wunderground v.1.15,2013-09-13 15:08:00,
2013-09-13 11:13:00,72.1,65.9,29.76,WSW,257,5.0,5.0,81,0.00,,,0.05,863,Wunderground v.1.15,2013-09-13 15:13:00,
2013-09-13 11:18:00,72.5,65.6,29.77,WSW,250,2.0,6.0,79,0.00,,,0.05,585,Wunderground v.1.15,2013-09-13 15:18:00,
2013-09-13 11:23:00,72.7,65.4,29.76,SW,227,2.0,4.0,78,0.00,,,0.05,406,Wunderground v.1.15,2013-09-13 15:23:00,
2013-09-13 11:28:00,72.8,65.5,29.76,NNW,329,1.0,4.0,78,0.00,,,0.05,320,Wunderground v.1.15,2013-09-13 15:28:00,
2013-09-13 11:33:00,72.9,65.3,29.76,WNW,296,0.0,2.0,77,0.00,,,0.05,299,Wunderground v.1.15,2013-09-13 15:33:00,
2013-09-13 11:38:00,72.9,64.9,29.76,WSW,252,0.0,5.0,76,0.00,,,0.05,367,Wunderground v.1.15,2013-09-13 15:38:00,
2013-09-13 11:43:00,73.0,65.0,29.76,WNW,288,0.0,2.0,76,0.00,,,0.05,336,Wunderground v.1.15,2013-09-13 15:43:00,
2013-09-13 11:48:00,73.0,64.6,29.77,SW,234,0.0,5.0,75,0.00,,,0.05,308,Wunderground v.1.15,2013-09-13 15:48:00,
2013-09-13 11:53:00,72.8,63.6,29.76,SW,232,5.0,5.0,73,0.00,,,0.05,357,Wunderground v.1.15,2013-09-13 15:53:00,
2013-09-13 11:58:00,72.7,63.9,29.76,WSW,254,2.0,5.0,74,0.00,,,0.05,332,Wunderground v.1.15,2013-09-13 15:58:00,
2013-09-13 12:03:00,72.5,63.7,29.76,NNW,330,0.0,2.0,74,0.00,,,0.05,339,Wunderground v.1.15,2013-09-13 16:03:00,
2013-09-13 12:08:00,72.8,64.4,29.76,West,271,0.0,2.0,75,0.00,,,0.05,392,Wunderground v.1.15,2013-09-13 16:08:00,
2013-09-13 12:14:00,72.9,64.1,29.76,NNE,22,7.0,7.0,74,0.00,,,0.05,441,Wunderground v.1.15,2013-09-13 16:14:00,
2013-09-13 12:20:00,73.0,63.8,29.77,WNW,296,2.0,7.0,73,0.00,,,0.05,633,Wunderground v.1.15,2013-09-13 16:20:00,
2013-09-13 12:25:00,73.4,64.2,29.77,WSW,238,4.0,6.0,73,0.00,,,0.05,338,Wunderground v.1.15,2013-09-13 16:25:00,
2013-09-13 12:30:00,73.2,62.8,29.76,West,276,0.0,7.0,70,0.00,,,0.05,459,Wunderground v.1.15,2013-09-13 16:30:00,
2013-09-13 12:35:00,73.1,63.5,29.76,SW,235,0.0,3.0,72,0.00,,,0.05,281,Wunderground v.1.15,2013-09-13 16:35:00,
2013-09-13 12:40:00,72.9,62.5,29.76,NW,306,0.0,6.0,70,0.00,,,0.05,192,Wunderground v.1.15,2013-09-13 16:40:00,
2013-09-13 12:45:00,72.7,62.8,29.76,SW,233,0.0,6.0,71,0.00,,,0.05,149,Wunderground v.1.15,2013-09-13 16:45:00,
2013-09-13 12:50:00,72.3,62.0,29.77,WSW,250,3.0,6.0,70,0.00,,,0.05,146,Wunderground v.1.15,2013-09-13 16:50:00,
2013-09-13 12:55:00,71.9,61.6,29.77,WSW,244,1.0,2.0,70,0.00,,,0.05,137,Wunderground v.1.15,2013-09-13 16:55:00,
2013-09-13 13:00:00,71.6,62.1,29.77,WNW,296,0.0,2.0,72,0.00,,,0.05,120,Wunderground v.1.15,2013-09-13 17:00:00,
2013-09-13 13:05:00,71.4,62.3,29.77,WNW,283,0.0,3.0,73,0.00,,,0.05,83,Wunderground v.1.15,2013-09-13 17:05:00,
2013-09-13 13:10:00,71.2,62.1,29.76,NNE,30,4.0,4.0,73,0.00,,,0.05,76,Wunderground v.1.15,2013-09-13 17:10:00,
2013-09-13 13:15:00,71.1,62.4,29.76,NNE,29,0.0,4.0,74,0.00,,,0.05,84,Wunderground v.1.15,2013-09-13 17:15:00,
2013-09-13 13:20:00,70.8,62.5,29.77,NW,305,0.0,4.0,75,0.00,,,0.05,113,Wunderground v.1.15,2013-09-13 17:20:00,
2013-09-13 13:25:00,70.4,62.1,29.76,West,281,0.0,3.0,75,0.00,,,0.05,153,Wunderground v.1.15,2013-09-13 17:25:00,
2013-09-13 13:30:00,70.2,62.3,29.76,West,281,0.0,3.0,76,0.00,,,0.05,207,Wunderground v.1.15,2013-09-13 17:30:00,
2013-09-13 13:35:00,70.1,62.2,29.76,NNE,25,0.0,5.0,76,0.00,,,0.05,216,Wunderground v.1.15,2013-09-13 17:35:00,
2013-09-13 13:40:00,70.1,62.2,29.76,West,275,0.0,5.0,76,0.00,,,0.05,264,Wunderground v.1.15,2013-09-13 17:40:00,
2013-09-13 13:45:00,70.1,62.2,29.75,WSW,240,0.0,3.0,76,0.00,,,0.05,244,Wunderground v.1.15,2013-09-13 17:45:00,
2013-09-13 13:50:00,70.3,62.4,29.75,WNW,294,2.0,5.0,76,0.00,,,0.05,258,Wunderground v.1.15,2013-09-13 17:50:00,
2013-09-13 13:55:00,70.4,62.1,29.75,NW,315,0.0,4.0,75,0.00,,,0.05,330,Wunderground v.1.15,2013-09-13 17:55:00,
2013-09-13 14:00:00,70.8,62.5,29.75,WSW,239,0.0,4.0,75,0.00,,,0.05,294,Wunderground v.1.15,2013-09-13 18:00:00,
2013-09-13 14:05:00,71.3,63.0,29.75,SSE,163,1.0,5.0,75,0.00,,,0.05,211,Wunderground v.1.15,2013-09-13 18:05:00,
2013-09-13 14:10:00,71.6,62.5,29.75,WNW,300,1.0,7.0,73,0.00,,,0.05,109,Wunderground v.1.15,2013-09-13 18:10:00,
2013-09-13 14:16:00,71.7,62.2,29.75,WSW,237,4.0,9.0,72,0.00,,,0.05,60,Wunderground v.1.15,2013-09-13 18:16:00,
2013-09-13 14:21:00,71.8,61.9,29.75,North,355,4.0,4.0,71,0.00,,,0.05,58,Wunderground v.1.15,2013-09-13 18:21:00,
2013-09-13 14:26:00,71.8,61.5,29.75,NE,38,4.0,8.0,70,0.00,,,0.05,54,Wunderground v.1.15,2013-09-13 18:26:00,
2013-09-13 14:31:00,71.9,62.0,29.75,West,272,2.0,3.0,71,0.00,,,0.05,51,Wunderground v.1.15,2013-09-13 18:31:00,
2013-09-13 14:36:00,72.0,62.1,29.75,North,360,6.0,8.0,71,0.00,,,0.05,53,Wunderground v.1.15,2013-09-13 18:36:00,
2013-09-13 14:41:00,72.1,61.8,29.75,West,262,0.0,3.0,70,0.00,,,0.05,58,Wunderground v.1.15,2013-09-13 18:41:00,
2013-09-13 14:46:00,72.2,61.9,29.75,NE,52,6.0,7.0,70,0.00,,,0.05,72,Wunderground v.1.15,2013-09-13 18:46:00,
2013-09-13 14:51:00,72.3,62.0,29.75,NNE,23,3.0,6.0,70,0.00,,,0.05,84,Wunderground v.1.15,2013-09-13 18:51:00,
2013-09-13 14:56:00,72.4,61.7,29.75,WNW,283,2.0,7.0,69,0.00,,,0.05,72,Wunderground v.1.15,2013-09-13 18:56:00,
2013-09-13 15:01:00,72.4,61.7,29.75,North,10,0.0,4.0,69,0.00,,,0.05,65,Wunderground v.1.15,2013-09-13 19:01:00,
2013-09-13 15:06:00,72.5,61.7,29.75,WSW,250,0.0,4.0,69,0.00,,,0.05,83,Wunderground v.1.15,2013-09-13 19:06:00,
2013-09-13 15:11:00,72.5,61.3,29.75,NW,319,5.0,5.0,68,0.00,,,0.05,58,Wunderground v.1.15,2013-09-13 19:11:00,
2013-09-13 15:17:00,72.6,61.4,29.75,NNE,15,0.0,5.0,68,0.00,,,0.05,53,Wunderground v.1.15,2013-09-13 19:17:00,
2013-09-13 15:22:00,72.7,61.5,29.75,North,9,2.0,3.0,68,0.00,,,0.05,79,Wunderground v.1.15,2013-09-13 19:22:00,
2013-09-13 15:27:00,72.8,60.8,29.75,NNE,23,2.0,7.0,66,0.00,,,0.05,51,Wunderground v.1.15,2013-09-13 19:27:00,
2013-09-13 15:32:00,72.9,61.3,29.74,WSW,254,0.0,2.0,67,0.00,,,0.05,69,Wunderground v.1.15,2013-09-13 19:32:00,
2013-09-13 15:37:00,73.3,60.8,29.74,South,184,0.0,2.0,65,0.00,,,0.05,213,Wunderground v.1.15,2013-09-13 19:37:00,
2013-09-13 15:42:00,73.4,60.9,29.74,West,275,0.0,3.0,65,0.00,,,0.05,243,Wunderground v.1.15,2013-09-13 19:42:00,
2013-09-13 15:47:00,73.5,61.0,29.75,NNW,327,1.0,3.0,65,0.00,,,0.05,176,Wunderground v.1.15,2013-09-13 19:47:00,
2013-09-13 15:52:00,73.6,61.1,29.75,West,259,0.0,1.0,65,0.00,,,0.05,62,Wunderground v.1.15,2013-09-13 19:52:00,
2013-09-13 15:57:00,73.8,61.3,29.75,West,259,1.0,1.0,65,0.00,,,0.05,47,Wunderground v.1.15,2013-09-13 19:57:00,
2013-09-13 16:02:00,73.9,62.2,29.76,NW,315,3.0,3.0,67,0.00,,,0.05,33,Wunderground v.1.15,2013-09-13 20:02:00,
2013-09-13 16:07:00,73.3,63.7,29.77,SW,225,1.0,6.0,72,0.34,,,0.13,60,Wunderground v.1.15,2013-09-13 20:07:00,
2013-09-13 16:12:00,70.0,62.8,29.76,SSE,165,0.0,3.0,78,0.39,,,0.16,183,Wunderground v.1.15,2013-09-13 20:12:00,
2013-09-13 16:17:00,68.7,63.3,29.76,SSE,165,0.0,3.0,83,0.10,,,0.16,199,Wunderground v.1.15,2013-09-13 20:17:00,
2013-09-13 16:22:00,68.6,63.9,29.76,SSE,166,0.0,0.0,85,0.05,,,0.16,105,Wunderground v.1.15,2013-09-13 20:22:00,
2013-09-13 16:27:00,68.7,64.7,29.76,SSE,166,0.0,0.0,87,0.04,,,0.16,72,Wunderground v.1.15,2013-09-13 20:27:00,
2013-09-13 16:32:00,68.8,64.8,29.76,SSE,166,0.0,1.0,87,0.00,,,0.16,98,Wunderground v.1.15,2013-09-13 20:32:00,
2013-09-13 16:37:00,68.7,65.0,29.76,SSE,166,0.0,1.0,88,0.00,,,0.16,104,Wunderground v.1.15,2013-09-13 20:37:00,
2013-09-13 16:42:00,68.6,64.6,29.76,SSE,166,0.0,0.0,87,0.00,,,0.16,76,Wunderground v.1.15,2013-09-13 20:42:00,
2013-09-13 16:47:00,68.4,64.7,29.77,West,260,0.0,3.0,88,0.00,,,0.16,91,Wunderground v.1.15,2013-09-13 20:47:00,
2013-09-13 16:52:00,68.2,63.9,29.77,NW,313,4.0,5.0,86,0.00,,,0.16,137,Wunderground v.1.15,2013-09-13 20:52:00,
2013-09-13 16:57:00,68.0,63.3,29.78,NE,38,5.0,14.0,85,0.00,,,0.16,100,Wunderground v.1.15,2013-09-13 20:57:00,
2013-09-13 17:02:00,67.7,62.7,29.78,ENE,62,3.0,12.0,84,0.00,,,0.16,93,Wunderground v.1.15,2013-09-13 21:02:00,
2013-09-13 17:07:00,67.0,61.0,29.79,ENE,67,11.0,12.0,81,0.00,,,0.16,74,Wunderground v.1.15,2013-09-13 21:07:00,
2013-09-13 17:12:00,66.6,60.6,29.79,North,9,1.0,9.0,81,0.00,,,0.16,98,Wunderground v.1.15,2013-09-13 21:12:00,
2013-09-13 17:17:00,66.3,60.6,29.79,ENE,67,2.0,9.0,82,0.00,,,0.16,93,Wunderground v.1.15,2013-09-13 21:17:00,
2013-09-13 17:22:00,66.2,60.5,29.79,NW,319,2.0,5.0,82,0.00,,,0.16,32,Wunderground v.1.15,2013-09-13 21:22:00,
2013-09-13 17:27:00,66.1,60.8,29.79,NNW,348,0.0,5.0,83,0.00,,,0.16,25,Wunderground v.1.15,2013-09-13 21:27:00,
2013-09-13 17:32:00,66.0,60.7,29.79,NE,44,3.0,3.0,83,0.00,,,0.16,25,Wunderground v.1.15,2013-09-13 21:32:00,
2013-09-13 17:37:00,65.9,60.6,29.79,North,351,3.0,12.0,83,0.00,,,0.16,26,Wunderground v.1.15,2013-09-13 21:37:00,
2013-09-13 17:42:00,65.8,60.5,29.80,North,360,6.0,6.0,83,0.00,,,0.16,25,Wunderground v.1.15,2013-09-13 21:42:00,
2013-09-13 17:47:00,65.8,60.2,29.80,NW,309,3.0,8.0,82,0.00,,,0.16,21,Wunderground v.1.15,2013-09-13 21:47:00,
2013-09-13 17:52:00,65.8,60.2,29.80,NE,40,4.0,7.0,82,0.00,,,0.16,19,Wunderground v.1.15,2013-09-13 21:52:00,
2013-09-13 17:57:00,65.8,59.8,29.80,NNW,344,2.0,7.0,81,0.00,,,0.16,18,Wunderground v.1.15,2013-09-13 21:57:00,
2013-09-13 18:02:00,65.8,59.5,29.81,NE,46,5.0,5.0,80,0.00,,,0.16,28,Wunderground v.1.15,2013-09-13 22:02:00,
2013-09-13 18:07:00,65.8,59.1,29.81,NNW,346,6.0,7.0,79,0.00,,,0.16,26,Wunderground v.1.15,2013-09-13 22:07:00,
2013-09-13 18:12:00,65.7,58.7,29.82,NW,309,3.0,5.0,78,0.00,,,0.16,18,Wunderground v.1.15,2013-09-13 22:12:00,
2013-09-13 18:17:00,65.7,58.7,29.82,NW,308,2.0,11.0,78,0.00,,,0.16,21,Wunderground v.1.15,2013-09-13 22:17:00,
2013-09-13 18:22:00,65.8,58.4,29.83,North,5,7.0,8.0,77,0.00,,,0.16,21,Wunderground v.1.15,2013-09-13 22:22:00,
2013-09-13 18:27:00,65.8,58.4,29.83,NNW,333,4.0,8.0,77,0.00,,,0.16,14,Wunderground v.1.15,2013-09-13 22:27:00,
2013-09-13 18:32:00,65.8,58.4,29.83,NW,306,0.0,5.0,77,0.00,,,0.16,12,Wunderground v.1.15,2013-09-13 22:32:00,
2013-09-13 18:37:00,65.8,58.4,29.83,North,5,2.0,8.0,77,0.00,,,0.16,9,Wunderground v.1.15,2013-09-13 22:37:00,
2013-09-13 18:42:00,65.8,58.4,29.83,NNW,342,5.0,8.0,77,0.00,,,0.16,7,Wunderground v.1.15,2013-09-13 22:42:00,
2013-09-13 18:48:00,65.7,58.3,29.83,North,355,1.0,8.0,77,0.00,,,0.16,5,Wunderground v.1.15,2013-09-13 22:48:00,
2013-09-13 18:53:00,65.6,58.2,29.84,NNW,342,3.0,8.0,77,0.00,,,0.16,5,Wunderground v.1.15,2013-09-13 22:53:00,
2013-09-13 18:58:00,65.5,58.1,29.84,WNW,293,2.0,8.0,77,0.00,,,0.16,0,Wunderground v.1.15,2013-09-13 22:58:00,
2013-09-13 19:03:00,65.5,58.5,29.85,SSW,200,0.0,7.0,78,0.00,,,0.16,0,Wunderground v.1.15,2013-09-13 23:03:00,
2013-09-13 19:08:00,65.4,58.4,29.85,NNW,344,10.0,10.0,78,0.00,,,0.16,0,Wunderground v.1.15,2013-09-13 23:08:00,
2013-09-13 19:13:00,65.3,58.3,29.85,SSE,157,2.0,10.0,78,0.00,,,0.16,0,Wunderground v.1.15,2013-09-13 23:13:00,
2013-09-13 19:18:00,65.3,58.3,29.85,North,11,2.0,10.0,78,0.00,,,0.16,0,Wunderground v.1.15,2013-09-13 23:18:00,
2013-09-13 19:23:00,65.4,58.4,29.85,NE,35,3.0,9.0,78,0.00,,,0.16,0,Wunderground v.1.15,2013-09-13 23:23:00,
2013-09-13 19:28:00,65.4,58.4,29.85,WNW,302,4.0,9.0,78,0.00,,,0.16,0,Wunderground v.1.15,2013-09-13 23:28:00,
2013-09-13 19:33:00,65.3,58.3,29.85,NW,306,3.0,8.0,78,0.00,,,0.16,0,Wunderground v.1.15,2013-09-13 23:33:00,
2013-09-13 19:38:00,65.2,58.2,29.86,NE,36,2.0,8.0,78,0.00,,,0.16,0,Wunderground v.1.15,2013-09-13 23:38:00,
2013-09-13 19:43:00,65.2,58.2,29.86,WNW,296,4.0,8.0,78,0.00,,,0.16,0,Wunderground v.1.15,2013-09-13 23:43:00,
2013-09-13 19:48:00,65.0,58.3,29.86,NNE,20,3.0,8.0,79,0.00,,,0.16,0,Wunderground v.1.15,2013-09-13 23:48:00,
2013-09-13 19:53:00,65.0,58.3,29.87,NNW,330,9.0,9.0,79,0.00,,,0.16,0,Wunderground v.1.15,2013-09-13 23:53:00,
2013-09-13 19:58:00,65.0,58.3,29.87,West,279,1.0,9.0,79,0.00,,,0.16,0,Wunderground v.1.15,2013-09-13 23:58:00,
2013-09-13 20:03:00,64.9,57.9,29.87,North,355,4.0,5.0,78,0.00,,,0.16,0,Wunderground v.1.15,2013-09-14 00:03:00,
2013-09-13 20:08:00,64.9,58.2,29.88,West,269,2.0,5.0,79,0.00,,,0.16,0,Wunderground v.1.15,2013-09-14 00:08:00,
2013-09-13 20:13:00,64.9,58.2,29.88,WNW,288,2.0,2.0,79,0.00,,,0.16,0,Wunderground v.1.15,2013-09-14 00:13:00,
2013-09-13 20:18:00,64.8,58.1,29.88,West,263,0.0,9.0,79,0.00,,,0.16,0,Wunderground v.1.15,2013-09-14 00:18:00,
2013-09-13 20:23:00,64.7,57.7,29.88,SW,226,0.0,5.0,78,0.00,,,0.16,0,Wunderground v.1.15,2013-09-14 00:23:00,
2013-09-13 20:28:00,64.5,57.1,29.88,NE,45,3.0,6.0,77,0.00,,,0.16,0,Wunderground v.1.15,2013-09-14 00:28:00,
2013-09-13 20:33:00,64.5,56.8,29.88,West,277,0.0,4.0,76,0.00,,,0.16,0,Wunderground v.1.15,2013-09-14 00:33:00,
2013-09-13 20:38:00,64.4,56.3,29.88,NE,34,2.0,7.0,75,0.00,,,0.16,0,Wunderground v.1.15,2013-09-14 00:38:00,
2013-09-13 20:43:00,64.3,56.2,29.89,WNW,302,4.0,6.0,75,0.00,,,0.16,0,Wunderground v.1.15,2013-09-14 00:43:00,
2013-09-13 20:48:00,64.1,55.3,29.89,NE,49,0.0,8.0,73,0.00,,,0.16,0,Wunderground v.1.15,2013-09-14 00:48:00,
2013-09-13 20:53:00,64.0,54.8,29.89,North,5,0.0,4.0,72,0.00,,,0.16,0,Wunderground v.1.15,2013-09-14 00:53:00,
2013-09-13 20:58:00,64.0,54.4,29.89,SW,227,0.0,8.0,71,0.00,,,0.16,0,Wunderground v.1.15,2013-09-14 00:58:00,
2013-09-13 21:03:00,63.9,54.7,29.89,ENE,73,2.0,2.0,72,0.00,,,0.16,0,Wunderground v.1.15,2013-09-14 01:03:00,
2013-09-13 21:08:00,63.8,54.6,29.89,North,355,1.0,5.0,72,0.00,,,0.16,0,Wunderground v.1.15,2013-09-14 01:08:00,
2013-09-13 21:13:00,63.7,54.5,29.89,WSW,244,4.0,4.0,72,0.00,,,0.16,0,Wunderground v.1.15,2013-09-14 01:13:00,
2013-09-13 21:18:00,63.5,53.9,29.90,SW,227,2.0,8.0,71,0.00,,,0.16,0,Wunderground v.1.15,2013-09-14 01:18:00,
2013-09-13 21:23:00,63.4,54.2,29.90,NNE,15,4.0,6.0,72,0.00,,,0.16,0,Wunderground v.1.15,2013-09-14 01:23:00,
2013-09-13 21:28:00,63.2,53.6,29.90,NE,54,3.0,9.0,71,0.00,,,0.16,0,Wunderground v.1.15,2013-09-14 01:28:00,
2013-09-13 21:33:00,63.0,53.8,29.90,East,95,2.0,6.0,72,0.00,,,0.16,0,Wunderground v.1.15,2013-09-14 01:33:00,
2013-09-13 21:38:00,62.9,53.7,29.91,NNW,348,0.0,6.0,72,0.00,,,0.16,0,Wunderground v.1.15,2013-09-14 01:38:00,
2013-09-13 21:43:00,62.7,53.9,29.91,NW,318,0.0,5.0,73,0.00,,,0.16,0,Wunderground v.1.15,2013-09-14 01:43:00,
2013-09-13 21:48:00,62.5,53.7,29.91,East,98,0.0,7.0,73,0.00,,,0.16,0,Wunderground v.1.15,2013-09-14 01:48:00,
2013-09-13 21:53:00,62.4,53.6,29.91,NW,317,2.0,6.0,73,0.00,,,0.16,0,Wunderground v.1.15,2013-09-14 01:53:00,
2013-09-13 21:58:00,62.2,53.8,29.92,West,279,0.0,6.0,74,0.00,,,0.16,0,Wunderground v.1.15,2013-09-14 01:58:00,
2013-09-13 22:03:00,62.0,53.6,29.92,West,270,2.0,7.0,74,0.00,,,0.16,0,Wunderground v.1.15,2013-09-14 02:03:00,
2013-09-13 22:08:00,61.9,53.5,29.92,NNE,20,0.0,7.0,74,0.00,,,0.16,0,Wunderground v.1.15,2013-09-14 02:08:00,
2013-09-13 22:13:00,61.8,53.4,29.92,WNW,302,3.0,8.0,74,0.00,,,0.16,0,Wunderground v.1.15,2013-09-14 02:13:00,
2013-09-13 22:18:00,61.7,53.3,29.92,NE,39,3.0,8.0,74,0.00,,,0.16,0,Wunderground v.1.15,2013-09-14 02:18:00,
2013-09-13 22:23:00,61.6,53.2,29.92,NW,312,0.0,6.0,74,0.00,,,0.16,0,Wunderground v.1.15,2013-09-14 02:23:00,
2013-09-13 22:28:00,61.4,53.0,29.93,NNE,26,1.0,6.0,74,0.00,,,0.16,0,Wunderground v.1.15,2013-09-14 02:28:00,
2013-09-13 22:33:00,61.4,53.0,29.93,West,259,2.0,6.0,74,0.00,,,0.16,0,Wunderground v.1.15,2013-09-14 02:33:00,
2013-09-13 22:38:00,61.2,53.2,29.93,ENE,73,2.0,6.0,75,0.00,,,0.16,0,Wunderground v.1.15,2013-09-14 02:38:00,
2013-09-13 22:43:00,61.1,53.1,29.93,NW,315,0.0,3.0,75,0.00,,,0.16,0,Wunderground v.1.15,2013-09-14 02:43:00,
2013-09-13 22:48:00,61.0,53.0,29.93,ENE,57,1.0,7.0,75,0.00,,,0.16,0,Wunderground v.1.15,2013-09-14 02:48:00,
2013-09-13 22:53:00,61.0,53.0,29.93,WNW,302,8.0,8.0,75,0.00,,,0.16,0,Wunderground v.1.15,2013-09-14 02:53:00,
2013-09-13 22:58:00,60.9,52.9,29.93,SW,233,1.0,8.0,75,0.00,,,0.16,0,Wunderground v.1.15,2013-09-14 02:58:00,
2013-09-13 23:03:00,60.8,52.8,29.93,WSW,254,2.0,4.0,75,0.00,,,0.16,0,Wunderground v.1.15,2013-09-14 03:03:00,
2013-09-13 23:08:00,60.7,52.7,29.93,NW,313,2.0,5.0,75,0.00,,,0.16,0,Wunderground v.1.15,2013-09-14 03:08:00,
2013-09-13 23:13:00,60.5,52.5,29.93,North,5,0.0,3.0,75,0.00,,,0.16,0,Wunderground v.1.15,2013-09-14 03:13:00,
2013-09-13 23:18:00,60.4,52.8,29.93,North,355,0.0,4.0,76,0.00,,,0.16,0,Wunderground v.1.15,2013-09-14 03:18:00,
2013-09-13 23:23:00,60.3,52.3,29.93,NNE,25,1.0,9.0,75,0.00,,,0.16,0,Wunderground v.1.15,2013-09-14 03:23:00,
2013-09-13 23:28:00,60.2,52.2,29.93,NW,309,4.0,9.0,75,0.00,,,0.16,0,Wunderground v.1.15,2013-09-14 03:28:00,
2013-09-13 23:33:00,60.2,52.2,29.93,NW,319,3.0,8.0,75,0.00,,,0.16,0,Wunderground v.1.15,2013-09-14 03:33:00,
2013-09-13 23:39:00,60.0,52.4,29.93,North,360,0.0,8.0,76,0.00,,,0.16,0,Wunderground v.1.15,2013-09-14 03:39:00,
2013-09-13 23:45:00,60.0,52.4,29.93,NNW,329,2.0,3.0,76,0.00,,,0.16,0,Wunderground v.1.15,2013-09-14 03:45:00,
2013-09-13 23:50:00,59.8,52.2,29.93,North,9,0.0,6.0,76,0.00,,,0.16,0,Wunderground v.1.15,2013-09-14 03:50:00,
2013-09-13 23:55:00,59.8,52.6,29.94,West,260,2.0,6.0,77,0.00,,,0.16,0,Wunderground v.1.15,2013-09-14 03:55:00,